GFSWCAN_500_spd_003.txt.gz
Wind_Speed
21 22 23 24 22 17 16 15 12 12 11 10 9 8 6 6 6 8 9 12 14 17 22 26 33 36 39 35 40 47 48 53 57 57 50 45 45 41 37 34 37 34 35 36 32 34 29 32 22 34 35 34 33 33
20 20 21 23 23 20 18 17 14 13 12 10 9 7 7 6 6 7 7 7 11 14 19 23 32 36 41 39 41 40 42 43 52 55 54 50 43 41 41 39 42 39 39 35 37 41 40 40 42 40 40 39 37 34
22 20 19 21 22 23 20 18 16 15 14 11 9 7 6 6 4 7 7 7 10 12 14 13 22 33 36 38 42 51 48 44 43 42 51 55 53 51 49 47 47 44 37 37 35 36 38 35 38 39 41 47 43 40
25 23 21 20 21 22 21 20 18 18 16 13 10 8 6 5 6 5 7 9 9 11 12 11 15 22 29 33 34 44 45 38 40 43 41 48 51 49 50 48 47 45 37 40 42 38 33 30 33 36 35 21 42 37
26 26 24 22 21 21 21 21 20 19 19 17 13 10 6 6 7 8 7 8 10 9 9 10 10 16 27 33 37 42 47 47 35 48 42 44 50 49 50 47 47 47 45 36 34 40 44 37 38 42 42 43 19 23
25 26 26 25 23 22 21 21 20 19 20 20 18 14 10 8 8 9 10 9 7 8 8 7 9 9 14 29 36 41 50 55 44 40 33 47 29 48 53 51 49 49 48 43 49 34 40 44 44 36 36 24 23 25
25 26 26 25 25 25 24 23 22 21 21 20 20 17 14 12 10 11 11 10 8 8 10 9 8 9 9 12 22 36 41 31 33 28 32 36 41 41 42 48 49 50 49 54 37 46 44 45 49 45 45 41 26 30
22 24 25 26 25 23 24 25 24 23 21 21 20 19 17 14 13 12 12 11 9 8 10 8 6 7 11 13 15 19 25 31 38 40 40 37 41 45 47 47 46 53 53 55 58 56 50 50 53 50 42 40 37 33
19 21 24 25 26 25 22 21 22 23 23 21 21 20 18 16 14 12 11 10 9 8 7 4 2 10 8 10 12 16 21 24 27 32 37 44 47 50 48 47 49 53 56 48 49 51 52 52 54 54 44 36 38 36
18 20 22 25 25 26 26 22 20 20 21 21 20 18 18 16 15 13 11 9 7 5 6 5 7 10 9 8 10 11 14 16 19 21 28 33 32 32 28 36 42 48 54 59 59 55 58 52 43 47 40 38 39 36
19 18 19 21 25 25 24 25 21 19 18 18 18 19 16 14 13 12 10 8 7 6 6 2 2 5 7 5 8 12 12 13 10 11 15 18 19 22 24 30 30 32 37 49 53 59 65 63 61 45 33 30 23 14
21 15 14 18 20 24 23 23 23 19 18 17 17 16 15 13 11 11 8 7 7 4 3 5 4 5 1 4 5 5 8 8 9 8 6 6 14 21 24 25 27 29 29 34 38 42 52 56 45 42 50 37 36 18
22 20 16 15 19 22 24 23 25 20 17 16 16 15 14 13 11 9 9 8 5 4 7 8 1 2 3 2 3 2 4 5 2 1 1 2 1 3 6 15 20 24 27 29 29 27 36 37 39 44 28 24 23 22
23 20 19 18 18 22 25 25 25 22 18 16 16 13 14 13 11 9 9 7 5 9 9 6 3 4 3 2 3 3 2 2 4 3 1 1 1 4 9 13 15 18 19 20 29 16 21 25 34 34 28 23 21 21
23 22 21 20 20 23 26 26 25 24 20 16 15 15 15 13 12 10 6 5 5 6 5 6 7 6 6 6 4 3 6 7 5 4 8 7 8 10 9 5 8 12 18 23 23 19 17 18 19 22 20 24 26 21
25 18 17 20 21 25 26 26 25 24 21 19 16 15 14 13 12 9 8 9 8 7 7 6 6 7 5 3 5 3 4 8 7 6 8 10 11 12 13 10 13 18 21 17 18 15 17 17 17 18 20 22 19 18
22 15 15 20 22 26 27 26 26 24 22 19 16 15 16 15 12 9 8 9 6 7 6 5 6 5 5 5 5 4 5 7 6 8 8 10 7 9 7 13 12 9 16 20 19 19 20 19 18 19 19 18 15 18
23 16 18 21 24 27 27 27 26 25 24 21 18 16 13 13 8 10 9 6 6 3 1 1 4 7 7 4 0 7 7 9 3 4 6 7 8 8 7 8 9 11 17 20 19 19 19 19 19 20 18 15 16 16
20 17 23 23 27 28 27 28 28 26 23 19 18 15 11 9 12 10 5 4 1 1 4 1 2 6 4 3 4 4 2 1 2 4 5 3 3 4 8 5 9 10 12 15 18 19 21 20 17 15 15 16 17 16
18 23 25 25 28 28 28 29 28 26 23 19 14 10 9 12 11 7 5 3 2 1 3 5 5 7 7 5 3 2 3 3 2 3 4 3 4 4 3 7 8 7 7 11 14 12 12 12 11 11 12 12 12 13
21 23 24 26 27 28 30 29 27 24 21 17 13 13 14 11 8 5 4 3 3 5 6 5 3 8 9 3 7 6 4 3 4 7 9 11 10 10 6 10 13 12 12 8 8 8 10 10 9 10 13 14 15 16
21 25 26 28 29 30 29 28 26 23 20 16 16 14 10 8 7 7 4 2 2 5 5 8 13 10 11 14 12 5 4 2 3 9 8 10 9 10 9 12 13 11 9 7 5 6 11 16 18 18 17 17 16 16
26 26 29 30 30 30 29 27 23 21 18 17 15 13 11 12 10 11 14 15 13 12 15 18 15 12 14 13 11 10 7 8 10 11 12 15 14 18 21 20 20 18 18 19 19 18 16 15 16 15 14 13 11 10
30 29 29 29 29 28 28 25 22 19 18 17 15 16 15 15 18 14 15 18 24 22 20 18 17 20 21 15 14 14 16 17 15 13 14 17 19 18 22 21 21 20 20 17 16 14 13 11 10 9 8 7 4 2
32 31 30 29 29 28 25 22 19 20 19 18 17 16 18 19 18 22 25 25 26 27 25 25 22 21 20 20 20 21 23 23 21 21 20 17 12 13 15 15 14 13 10 10 10 9 8 7 5 2 2 4 8 13
31 31 30 30 27 24 22 21 21 21 20 18 20 22 21 20 21 23 27 25 23 21 21 22 24 21 22 21 20 21 19 18 17 16 16 16 14 13 12 12 11 10 8 6 4 2 2 4 8 11 13 16 18 22
32 30 28 25 23 22 21 20 19 18 18 20 21 20 19 23 23 24 25 24 22 19 21 22 21 22 19 18 19 19 19 18 16 16 15 15 14 13 11 11 9 8 7 4 3 1 4 7 10 13 17 21 23 25
26 24 24 23 22 20 17 17 17 15 15 15 19 23 22 26 22 22 25 20 18 20 17 18 20 19 16 14 13 12 12 11 11 10 11 12 11 9 7 5 4 4 4 5 7 9 11 14 16 18 20 21 22 23
23 24 24 22 21 21 19 16 13 14 18 25 24 23 25 26 24 21 17 13 13 17 15 15 15 15 14 13 12 11 10 9 8 6 4 3 2 2 1 3 6 8 11 13 15 16 16 15 14 14 17 19 22 25
23 22 22 22 21 21 21 21 22 23 22 23 20 16 14 12 10 10 11 13 14 16 15 13 12 11 10 9 8 7 5 3 2 2 3 4 6 8 10 11 13 15 17 16 13 12 15 17 18 20 21 23 24 26
20 21 18 17 15 16 17 19 20 18 17 15 14 12 10 10 9 9 10 10 8 9 9 8 7 6 5 3 1 0 2 4 7 8 9 10 11 11 13 14 15 10 9 11 13 14 14 16 19 21 24 27 29 31
16 15 13 11 9 10 13 17 17 16 15 13 13 12 11 10 8 7 6 5 6 7 4 3 3 2 4 7 9 10 12 13 14 14 13 12 13 14 14 9 8 9 11 11 12 15 19 21 24 27 29 31 33 35
13 11 9 7 7 8 10 11 12 12 11 10 8 7 5 4 4 3 2 2 3 4 5 7 9 11 12 13 15 15 15 15 15 15 15 13 10 7 6 6 7 8 9 13 16 20 23 25 27 29 31 34 37 39

GFSWCAN_500_spd_006.txt.gz
Wind_Speed
20 19 20 21 23 22 20 16 16 14 15 13 12 12 9 6 5 8 7 9 12 16 19 22 28 32 39 38 41 47 46 49 54 54 54 51 51 49 46 44 43 42 44 43 39 36 33 26 28 36 36 38 36 39
21 20 20 20 21 23 21 18 17 15 14 13 12 11 10 8 5 3 6 5 6 12 15 18 23 27 33 38 40 43 48 50 53 52 53 50 50 49 48 48 45 42 45 46 46 43 38 31 31 30 34 43 36 33
22 21 20 20 20 21 22 21 18 16 15 14 13 11 9 8 7 3 2 5 7 6 7 12 18 24 30 35 39 42 43 48 50 49 46 46 52 50 49 47 47 45 43 42 42 43 40 36 36 33 32 31 29 32
23 22 22 20 20 19 22 22 20 18 17 16 14 12 10 9 9 6 2 1 3 5 7 9 12 13 20 26 35 40 40 39 40 37 42 44 44 48 53 51 47 46 45 45 42 41 38 38 38 37 36 37 34 35
22 23 23 22 20 20 21 22 22 19 18 18 17 15 12 9 7 7 6 5 5 6 8 11 12 14 12 21 29 35 39 55 44 42 34 40 38 39 49 52 48 47 46 43 41 42 41 40 38 35 34 32 36 31
21 21 23 23 23 21 22 21 21 20 19 19 20 18 15 11 8 6 7 10 9 9 10 13 13 13 10 13 22 28 37 49 52 46 47 37 39 37 39 43 47 47 48 45 42 42 41 44 45 43 37 35 36 36
24 23 22 23 24 23 22 23 22 21 20 19 21 21 18 14 11 8 6 7 10 10 11 13 13 10 11 9 15 27 31 35 43 53 49 38 22 46 39 36 40 44 46 45 45 44 43 37 38 37 44 46 43 39
19 23 25 25 25 25 23 23 24 22 21 19 18 20 20 17 13 10 8 7 8 9 10 12 9 8 8 8 8 11 23 29 34 40 55 51 33 36 38 32 39 50 45 45 46 48 53 53 44 43 44 43 42 39
18 20 24 26 26 26 24 23 24 23 22 20 18 17 18 17 14 11 10 8 8 8 7 7 5 5 8 3 7 6 9 11 17 22 26 30 25 23 28 37 40 38 45 50 49 50 52 50 54 49 49 50 42 41
21 18 20 26 27 26 26 24 22 22 21 19 18 17 17 16 14 12 10 9 8 6 6 6 7 9 11 6 10 8 9 12 16 16 18 20 23 26 32 34 36 41 43 44 45 45 51 55 54 55 54 53 52 49
24 21 18 21 26 26 27 26 22 20 20 20 19 17 16 15 13 11 10 8 7 6 6 6 5 6 8 7 7 7 7 10 10 16 18 20 20 26 31 33 37 39 42 45 48 48 50 51 51 48 45 44 43 37
20 25 21 20 24 28 26 26 26 21 18 18 17 16 16 13 11 11 10 8 9 7 6 6 4 5 6 5 6 8 9 10 12 10 10 14 16 20 20 25 32 36 39 40 42 44 46 48 47 50 51 50 45 44
20 22 21 21 23 26 28 25 26 23 19 18 18 16 15 14 12 11 10 9 8 7 9 11 3 5 4 2 6 6 9 10 10 9 9 11 15 17 23 25 27 31 32 31 34 36 36 33 36 38 41 41 45 43
23 25 22 19 22 24 28 26 26 25 21 19 18 18 16 15 13 12 9 5 3 3 7 8 5 1 1 4 6 5 7 10 12 11 6 3 3 7 13 12 12 17 20 25 29 27 27 23 25 27 32 27 27 28
28 27 24 20 21 24 27 27 27 26 22 19 19 17 15 15 13 10 9 6 5 6 6 5 4 6 3 3 3 4 5 7 8 4 6 6 4 5 6 9 11 13 13 13 19 25 19 16 14 15 19 23 33 15
30 26 23 21 21 24 27 27 27 27 23 21 19 17 16 14 12 10 8 7 5 5 5 4 5 4 4 4 5 5 4 5 4 7 3 6 6 7 9 9 7 10 10 10 12 19 15 18 12 22 17 15 13 17
27 24 25 23 24 25 28 28 29 27 23 21 17 15 16 13 10 10 10 8 5 2 4 5 2 6 6 6 8 3 2 4 5 2 4 3 4 3 2 9 10 10 15 20 17 18 19 17 15 12 13 15 15 17
28 23 21 25 27 27 29 28 28 27 23 20 16 16 14 13 11 10 9 6 3 2 0 3 9 8 7 7 4 1 4 4 1 1 2 3 2 1 1 6 10 16 20 20 16 18 18 17 17 16 17 18 18 19
23 18 22 27 28 28 29 28 28 25 20 16 16 14 12 12 7 8 7 5 3 2 4 4 8 11 10 6 2 2 1 3 2 2 1 0 2 3 5 9 8 12 14 22 24 22 21 19 16 17 18 19 19 17
21 22 26 29 29 29 30 29 27 23 20 18 16 13 11 8 10 8 5 4 3 3 3 2 3 8 7 6 3 4 3 2 2 2 5 3 3 4 10 4 4 9 12 13 24 23 19 19 19 18 16 15 15 16
27 25 27 29 30 30 30 28 24 23 22 18 15 12 13 12 7 6 4 2 0 2 2 1 4 7 9 9 10 9 6 3 4 7 6 9 5 6 8 11 9 8 9 9 11 11 11 11 10 11 11 11 10 10
26 27 30 30 31 30 28 27 25 24 20 15 15 14 11 8 6 7 4 0 2 6 7 12 12 13 13 12 14 7 7 7 7 5 8 7 8 13 13 12 10 9 9 9 7 5 5 6 6 6 8 10 10 11
27 30 31 31 29 29 29 28 25 21 18 17 16 13 12 10 7 8 11 14 18 18 15 15 18 15 13 11 12 11 11 12 12 14 16 18 17 17 16 16 15 13 13 14 13 12 12 12 14 14 13 12 11 10
30 30 30 30 30 29 28 24 22 21 20 19 17 14 12 13 14 16 16 15 17 17 15 17 18 15 13 11 10 15 17 18 14 17 22 24 25 25 24 22 21 20 19 16 15 14 12 10 9 7 6 6 5 2
31 31 31 30 28 26 24 23 23 22 21 19 19 21 20 23 24 28 26 23 21 20 23 23 23 23 23 22 20 19 18 20 20 20 18 19 21 19 18 17 16 14 12 12 11 10 10 9 7 5 1 2 6 10
31 30 28 28 26 24 24 24 22 20 18 19 24 23 24 27 32 29 23 24 22 20 23 24 25 21 20 21 22 23 22 19 16 14 14 15 16 16 15 15 15 13 11 9 7 4 2 2 4 7 9 11 14 18
30 28 27 25 25 25 23 21 20 19 19 26 27 27 27 25 27 27 25 23 25 24 23 25 24 23 21 21 21 20 20 21 20 18 16 16 16 14 12 11 9 8 6 4 3 4 6 8 10 13 15 18 19 20
28 27 24 23 20 20 19 19 20 22 25 28 26 25 26 26 26 24 21 22 20 21 22 20 19 19 17 16 16 15 14 14 14 12 12 11 9 7 5 3 2 2 3 5 7 9 11 12 12 11 11 12 15 18
25 24 22 20 19 19 18 17 17 18 23 24 24 23 22 20 18 17 17 16 15 14 14 15 14 14 13 13 12 11 11 10 9 7 4 2 1 1 2 4 6 8 9 10 9 6 7 10 12 12 13 14 16 18
24 24 23 23 21 17 16 18 21 25 24 24 23 22 19 17 16 16 16 17 15 15 15 14 12 11 10 9 8 7 5 3 2 1 2 3 5 6 7 8 9 9 5 3 5 7 7 8 10 12 15 18 21 25
21 22 23 21 19 23 25 26 25 23 20 18 16 13 11 10 11 14 15 11 11 12 11 9 8 7 6 4 2 0 2 4 5 7 9 10 10 10 9 10 8 5 5 7 7 8 9 11 14 17 20 23 26 30
16 17 19 18 17 19 22 21 21 19 18 16 14 13 11 12 11 10 8 8 9 6 4 3 3 2 3 5 9 10 11 12 12 13 13 13 12 11 10 8 4 3 3 5 8 10 14 17 20 22 24 27 31 33
14 13 14 14 12 12 15 16 16 15 14 13 11 10 8 7 6 6 5 5 6 5 5 6 8 10 10 11 12 14 15 15 15 16 15 14 12 9 5 2 1 3 5 8 12 15 18 21 23 26 28 30 33 36

GFSWCAN_500_spd_009.txt.gz
Wind_Speed
27 26 25 24 25 25 24 22 19 20 18 16 15 15 15 14 13 16 17 18 21 25 26 28 31 35 39 40 41 45 47 51 53 54 55 52 49 50 47 48 49 50 51 52 52 50 39 28 24 25 29 33 37 37
27 26 26 24 24 25 26 26 22 20 19 16 17 16 16 14 11 12 15 15 15 18 17 21 26 30 32 34 38 41 46 49 53 54 55 54 52 50 49 47 49 51 50 48 49 46 43 35 30 29 29 31 34 32
27 28 26 25 23 24 25 27 25 22 20 18 18 17 16 14 13 10 11 14 11 8 9 14 18 21 26 28 31 31 44 48 51 56 56 56 53 52 49 47 48 50 49 50 48 47 44 39 31 32 32 28 29 27
23 28 27 26 24 24 25 25 26 23 21 19 19 18 17 14 14 13 10 9 8 8 9 8 7 10 18 22 26 32 36 44 49 50 53 54 55 51 52 51 50 48 45 46 44 43 43 43 37 33 36 35 33 30
22 23 26 27 26 24 24 25 26 25 22 21 21 20 18 15 14 14 12 9 7 6 4 5 7 8 10 16 22 27 35 40 44 48 47 52 53 48 47 48 49 50 45 42 43 42 42 40 38 34 33 33 34 34
20 23 23 27 28 26 24 24 26 25 23 22 22 22 19 16 14 12 11 11 11 10 9 9 9 9 11 14 14 20 27 37 41 44 44 41 44 42 42 41 44 48 48 43 41 41 38 39 43 40 35 33 31 30
19 21 24 25 28 28 25 24 24 25 25 22 22 23 22 19 15 11 8 7 8 10 11 11 10 11 9 8 9 12 19 27 36 40 44 43 39 42 44 40 37 42 45 44 44 44 43 40 38 39 37 35 34 34
20 21 24 26 26 28 27 25 25 24 25 23 21 22 23 21 17 13 10 7 6 8 9 9 10 10 7 5 7 9 12 19 27 36 37 52 47 38 33 33 38 42 41 45 46 46 46 46 43 41 40 37 29 31
22 21 22 27 28 27 28 26 26 26 24 23 20 19 21 22 20 17 12 9 8 8 9 8 8 7 9 7 7 5 8 12 21 26 27 35 41 42 32 31 34 40 38 41 45 47 47 46 44 43 44 44 48 33
24 22 22 23 29 29 28 27 25 25 25 23 21 19 18 19 19 17 13 11 9 9 8 9 9 9 9 9 8 7 7 5 9 17 18 15 28 40 40 46 38 39 35 35 38 45 46 49 46 44 45 45 46 43
24 23 22 22 25 29 28 27 24 24 24 22 21 19 18 17 17 16 13 11 9 9 9 9 8 8 10 10 9 8 9 10 9 12 16 21 25 31 44 32 26 34 36 35 36 36 41 49 48 45 46 46 46 46
25 22 25 21 22 28 28 28 26 22 21 21 21 21 18 17 16 15 13 10 9 8 8 7 5 4 4 4 7 8 9 12 13 11 15 17 17 20 22 29 30 25 28 30 33 36 38 40 44 46 46 43 44 43
26 23 28 23 20 25 29 29 28 23 20 21 22 21 19 18 16 14 12 9 8 7 7 7 4 3 5 5 3 2 7 11 11 12 12 12 15 17 18 21 24 28 29 30 33 32 34 36 39 41 42 38 37 39
27 23 27 26 21 24 30 28 29 26 22 22 22 21 20 18 16 12 7 7 6 5 7 11 5 2 3 3 4 3 7 11 12 13 11 10 9 13 16 18 19 20 23 25 26 27 27 23 27 32 35 34 35 33
29 26 26 22 22 25 30 29 29 28 24 22 22 22 19 17 15 11 11 10 7 9 9 10 8 5 3 5 4 3 4 6 8 5 9 5 10 9 8 9 11 14 14 14 18 20 19 17 17 17 16 21 25 26
30 29 25 22 24 26 31 30 29 29 25 23 21 20 17 15 13 11 11 8 9 8 7 5 4 5 6 6 5 4 3 3 3 7 1 7 12 5 9 8 12 12 14 13 14 14 16 16 19 21 18 18 19 22
33 31 26 23 24 28 31 30 31 29 25 21 19 17 16 15 14 12 9 9 8 6 5 5 5 8 7 8 10 6 6 5 7 1 3 5 6 6 4 4 7 9 8 9 10 20 18 18 13 9 25 27 20 18
32 29 26 24 25 29 30 29 29 26 22 19 17 16 17 15 13 10 9 8 6 3 2 3 8 10 11 11 10 9 2 4 4 2 2 3 5 5 5 7 8 9 10 15 11 11 15 14 12 15 17 19 18 15
27 26 26 26 27 29 28 29 29 25 21 19 19 18 17 15 11 10 9 7 5 5 5 8 11 13 14 9 5 4 4 3 2 1 2 3 2 3 5 6 7 12 18 17 16 16 15 14 13 13 12 11 12 15
25 26 28 27 29 29 28 29 26 21 21 22 19 18 17 11 12 11 8 7 7 7 5 7 11 12 11 6 3 3 4 4 3 4 5 2 3 7 10 5 5 7 11 20 16 17 16 13 13 15 15 15 16 18
25 29 29 29 30 29 28 27 25 24 22 20 18 16 12 14 11 9 8 7 6 6 8 9 10 9 7 5 5 7 6 5 3 4 2 3 3 5 8 6 6 8 12 13 14 15 14 14 16 17 16 15 16 15
30 31 30 31 29 29 29 28 26 24 20 17 15 16 13 10 9 8 7 4 5 8 8 9 9 8 7 11 10 6 5 6 6 6 3 7 12 12 14 13 11 12 11 10 10 10 11 12 10 9 8 6 5 7
32 31 32 31 30 30 28 25 23 20 20 19 16 13 11 9 6 8 10 13 15 13 14 15 13 14 14 10 7 11 12 11 9 10 16 16 16 16 14 13 12 11 10 9 10 10 10 9 10 10 11 11 9 8
34 33 32 31 29 27 26 24 22 21 19 16 14 12 12 13 15 18 20 18 17 17 16 14 13 12 10 11 15 17 18 21 23 26 27 25 21 21 21 22 22 21 20 18 18 17 16 14 12 11 9 7 5 2
34 32 31 29 28 26 24 24 23 19 15 17 17 19 19 15 16 21 21 21 20 17 16 18 20 21 20 20 19 21 22 22 23 22 24 25 23 21 20 19 18 17 16 16 14 13 12 10 8 5 3 3 6 10
32 30 28 27 25 25 25 23 19 20 22 24 27 27 26 26 23 24 24 25 26 29 29 27 25 22 23 22 21 20 20 20 19 17 17 19 19 19 18 17 16 13 12 11 9 7 6 5 5 7 8 10 12 14
29 27 26 26 25 23 20 20 23 24 23 26 26 25 29 31 28 25 23 23 25 24 24 25 25 24 23 23 22 21 21 20 20 19 16 16 15 14 13 12 10 8 6 5 5 5 6 8 10 11 11 11 11 13
28 27 25 22 20 20 20 22 26 27 29 28 24 24 27 28 27 26 25 23 24 20 21 21 21 20 19 17 17 16 15 16 15 13 11 10 9 8 7 7 7 6 6 7 8 9 9 7 6 8 9 8 9 12
23 22 21 19 20 21 21 25 28 25 25 26 25 24 23 23 23 22 21 18 17 17 18 15 13 13 13 12 11 11 11 10 8 5 3 3 4 4 4 4 5 5 7 8 6 4 6 7 6 7 9 11 15 17
21 21 19 19 19 19 20 24 24 23 23 22 20 16 14 16 17 18 17 15 14 13 12 12 11 11 10 9 8 6 4 3 1 1 2 4 5 6 6 7 8 8 6 5 6 6 5 5 6 9 13 16 18 21
22 22 21 20 21 25 25 24 24 22 19 18 18 16 14 14 14 14 14 13 11 9 8 7 6 5 4 2 2 2 3 5 7 9 9 10 9 8 7 8 8 8 6 4 2 4 6 8 11 13 15 17 20 23
24 22 20 21 22 23 23 21 19 17 15 13 12 13 13 15 14 11 6 6 7 5 3 3 3 3 3 5 7 10 11 12 14 14 14 13 10 9 9 9 9 8 5 3 4 6 8 10 12 14 17 20 24 28
18 21 21 18 18 17 17 17 16 15 14 13 12 12 10 9 9 7 6 4 4 5 6 6 7 8 9 10 11 13 14 16 17 16 16 14 12 10 8 7 6 6 6 6 8 10 12 14 16 18 22 25 27 29

GFSWCAN_500_spd_012.txt.gz
Wind_Speed
23 24 28 27 28 27 26 26 25 23 21 19 18 18 18 19 21 22 25 28 31 32 32 35 36 38 39 41 43 45 46 50 51 50 52 52 51 48 46 44 44 44 43 46 52 57 55 45 38 33 30 33 32 26
21 23 25 29 27 27 26 26 26 24 21 20 18 18 17 17 17 16 17 20 23 25 24 28 30 32 33 33 37 41 43 46 50 51 52 52 53 53 49 48 46 46 45 44 47 51 53 49 42 38 32 30 28 25
20 20 23 25 28 27 25 26 27 26 23 19 19 18 17 16 16 14 12 16 17 16 18 21 23 25 28 31 33 36 42 44 46 48 50 52 54 54 53 52 50 48 48 47 45 45 48 47 41 37 32 33 31 27
21 20 21 23 28 26 25 25 26 27 25 21 20 18 16 15 14 13 11 11 14 14 13 12 12 15 17 20 25 30 35 39 44 47 48 50 52 53 54 52 51 50 50 48 47 46 44 44 41 37 34 29 29 30
23 21 20 22 25 28 26 24 26 26 26 22 21 19 17 15 13 12 12 10 10 10 9 9 8 6 8 12 17 21 28 33 39 42 47 49 49 50 52 51 50 51 51 51 49 46 42 43 40 35 35 33 33 32
25 22 21 22 21 28 27 25 25 25 25 24 22 20 19 16 14 13 13 12 10 9 8 7 6 8 10 10 12 15 20 26 31 35 39 44 46 46 39 37 45 52 49 51 49 48 45 42 40 38 33 32 31 29
24 24 21 21 21 25 28 26 25 25 26 25 23 22 20 18 16 14 12 12 12 12 12 11 9 10 11 12 13 13 16 21 27 32 35 39 41 44 42 35 32 33 38 43 48 50 48 49 39 36 34 34 33 31
25 26 22 22 23 23 28 28 25 24 26 26 24 22 22 20 18 16 14 12 10 9 9 10 10 10 11 12 11 11 11 15 20 26 29 33 40 42 44 45 48 42 36 39 38 42 50 47 42 33 28 33 30 29
24 26 23 23 24 24 27 29 27 25 24 26 25 22 22 23 21 19 15 13 12 8 7 8 10 9 9 13 11 11 11 11 12 16 24 30 34 39 40 40 39 44 44 39 36 38 41 47 48 43 42 40 35 33
25 25 25 23 23 26 25 28 28 26 26 26 25 23 21 22 23 21 18 15 12 10 8 8 9 9 9 11 15 11 12 12 12 17 21 26 26 29 34 42 40 40 38 44 39 35 36 41 46 46 45 44 40 39
26 25 25 23 24 27 26 26 28 26 26 25 25 23 21 19 20 22 20 17 13 11 9 8 9 10 10 11 14 13 12 12 12 14 16 18 22 19 24 37 37 29 32 27 32 29 32 36 39 41 45 45 41 39
28 25 25 24 23 25 29 26 26 25 25 24 25 23 21 19 19 19 19 15 12 10 9 8 8 7 6 5 5 8 11 13 13 12 13 17 20 23 22 21 29 26 29 30 28 29 30 29 28 30 35 41 42 40
29 26 25 25 23 25 29 27 26 24 23 23 23 23 21 20 19 18 17 14 11 11 10 9 7 5 5 7 6 4 8 12 12 14 13 10 13 18 22 22 22 27 26 25 27 33 35 34 33 33 33 33 34 39
27 27 25 26 23 25 29 28 28 25 23 23 23 22 23 21 18 15 13 12 9 10 9 10 7 3 3 4 4 2 6 9 11 14 13 11 13 16 14 18 23 27 30 33 33 31 34 36 35 34 34 34 32 32
26 28 26 28 23 25 29 29 29 26 23 21 21 21 21 18 16 14 13 13 10 6 5 7 8 6 5 4 4 3 4 6 9 8 7 8 8 10 14 16 18 24 28 26 26 26 25 25 27 28 26 25 27 24
27 27 26 29 23 25 30 29 29 28 23 21 20 20 19 16 15 14 13 12 8 9 8 7 7 6 7 6 4 4 4 5 4 5 3 7 9 10 7 9 9 12 13 15 15 15 16 19 22 19 17 19 25 23
28 27 28 26 26 28 32 29 29 28 23 20 18 18 17 17 16 14 12 9 9 9 7 8 7 7 6 6 7 5 4 3 7 7 4 3 5 7 7 6 8 10 9 11 12 12 18 19 21 18 16 17 17 16
31 28 25 27 27 30 31 28 27 25 20 18 18 18 17 17 16 14 10 10 9 6 6 6 7 9 8 11 9 8 2 5 4 2 2 3 4 4 4 3 4 6 4 6 7 14 15 17 16 10 10 22 18 14
30 25 24 25 27 30 29 27 27 22 20 19 19 19 19 16 14 12 12 9 7 6 5 7 10 11 13 10 6 5 4 2 1 1 1 4 3 3 4 4 5 7 13 13 14 14 17 8 12 12 9 14 17 17
26 24 24 25 29 29 27 26 24 22 21 20 19 18 17 14 12 13 11 8 7 6 5 9 11 15 10 4 1 1 2 2 2 4 5 8 8 9 6 5 4 7 18 14 14 13 11 9 9 8 8 9 10 13
25 25 25 28 28 27 28 26 25 24 22 20 19 18 14 12 13 11 7 6 5 5 5 9 12 8 5 2 4 1 2 2 5 2 5 4 9 7 2 4 6 8 18 15 13 13 12 9 8 7 9 12 14 14
27 26 29 28 28 30 28 26 23 21 19 18 18 14 12 12 9 7 7 5 5 7 8 8 7 7 7 5 3 2 2 4 6 5 7 11 8 10 8 7 8 8 10 9 8 9 10 10 8 9 9 8 6 4
30 32 30 30 30 27 24 23 21 19 17 16 15 13 11 10 8 7 6 7 9 10 13 13 11 8 10 3 2 5 5 6 7 10 16 15 16 14 9 7 11 12 10 8 8 6 6 6 9 11 12 12 12 10
34 31 29 29 27 25 24 21 19 19 17 15 15 13 12 12 14 16 17 16 16 17 14 12 9 7 5 8 12 18 20 19 19 20 19 15 13 14 16 17 18 19 19 19 18 17 15 13 12 11 9 8 7 6
31 29 28 27 26 23 21 21 19 17 16 17 17 19 21 22 20 18 17 17 16 15 13 12 12 16 17 21 25 26 28 27 25 24 26 26 24 23 22 21 20 18 16 17 15 14 12 10 8 6 5 6 7 8
29 28 25 24 23 24 20 16 18 20 22 21 20 21 23 24 24 27 28 28 27 25 22 21 23 24 24 23 24 22 23 23 23 21 20 20 19 19 17 17 16 14 12 12 10 9 9 9 8 8 9 9 8 8
25 24 24 25 23 19 19 23 26 26 26 25 26 26 26 26 26 29 27 27 27 28 27 26 24 22 20 20 20 19 19 20 21 19 17 16 15 14 12 11 10 10 9 8 7 6 6 7 6 5 5 6 6 8
25 24 22 19 18 22 23 26 26 25 25 28 27 26 25 26 27 24 22 23 23 23 23 22 21 20 18 16 15 15 15 15 15 13 11 10 8 7 7 6 6 6 6 7 8 7 5 5 6 4 4 6 9 13
20 20 20 18 19 23 26 27 26 28 27 27 27 27 27 27 25 22 20 22 20 18 17 16 15 14 13 13 12 11 10 9 8 7 5 4 4 4 5 6 6 6 7 7 6 6 7 5 2 3 6 10 12 14
19 21 21 20 23 26 26 25 26 26 25 24 21 20 19 20 20 18 16 16 15 13 11 11 9 8 8 7 6 5 5 4 4 4 4 5 6 6 6 6 6 7 7 7 6 6 4 3 5 8 11 13 14 17
17 19 20 22 26 23 22 22 21 19 17 16 16 16 15 15 13 13 14 14 12 10 8 8 7 5 3 2 1 1 3 5 7 9 12 13 13 12 10 9 9 9 8 7 6 5 5 7 9 11 13 15 17 19
18 19 20 21 24 24 22 20 18 15 14 11 10 12 12 12 13 10 8 7 5 4 2 1 1 2 4 7 10 12 13 14 15 17 18 18 17 15 13 12 11 9 7 6 7 7 9 11 12 13 15 17 20 21
19 18 19 19 18 18 18 16 15 12 10 10 9 8 8 7 7 6 5 6 7 6 6 5 7 9 10 10 11 12 12 12 11 12 12 12 11 10 10 9 8 6 6 6 8 10 12 13 15 17 18 20 22 23

GFSWCAN_500_spd_015.txt.gz
Wind_Speed
22 23 22 20 24 25 25 25 25 24 24 22 21 18 18 19 19 20 22 25 29 32 38 39 40 42 43 43 44 44 45 46 46 45 45 45 43 42 42 41 41 41 42 42 38 39 40 38 41 38 33 32 28 24
23 22 23 20 21 25 25 24 24 24 25 23 20 17 17 16 16 17 19 21 24 27 31 35 39 39 41 43 43 44 45 45 46 46 46 46 46 46 45 44 43 43 43 42 42 40 38 38 38 41 41 39 34 30
26 23 22 21 19 22 25 25 24 25 25 24 20 17 16 15 14 14 13 15 18 20 24 28 31 33 36 38 40 42 44 44 44 45 44 44 46 45 46 47 45 45 44 45 43 42 42 39 39 40 38 37 35 30
26 23 22 21 20 21 23 23 23 24 25 24 21 16 15 14 13 13 13 13 13 15 17 20 23 24 27 29 32 34 36 39 41 43 44 46 46 46 47 47 46 46 46 46 46 45 43 43 42 39 36 33 31 28
25 24 21 21 20 20 21 23 22 23 24 25 23 18 16 14 14 13 10 10 11 14 13 15 14 17 20 23 26 29 32 35 37 39 41 44 46 46 47 47 47 46 46 46 47 47 46 45 44 41 39 36 33 31
26 24 22 22 20 19 21 24 22 22 22 24 24 19 17 15 14 12 10 10 10 11 11 13 13 14 15 15 15 17 22 27 32 35 37 40 42 44 45 46 45 45 45 46 47 47 46 46 44 41 38 37 35 32
26 26 22 21 20 19 21 23 23 21 21 23 24 21 18 17 15 13 11 10 11 10 11 11 11 12 12 13 14 15 16 18 21 26 31 35 37 40 42 41 41 40 39 28 32 46 46 46 43 41 42 39 36 33
27 27 23 22 21 19 21 22 25 21 21 22 24 22 19 18 17 15 13 11 9 9 10 12 13 13 12 11 13 14 14 14 16 18 23 28 32 34 37 35 38 30 36 37 35 34 40 41 42 42 37 35 37 34
28 25 22 23 22 20 21 21 26 23 21 22 24 22 19 19 19 17 15 12 10 8 8 9 11 10 10 10 11 13 12 13 13 14 16 19 21 27 28 32 34 45 41 38 34 28 28 29 38 40 42 41 34 35
24 22 22 25 22 21 22 22 26 24 21 22 24 23 20 20 20 19 17 14 12 11 9 8 8 8 8 8 9 13 15 14 16 17 16 18 20 23 25 28 34 42 53 47 38 34 35 30 30 35 38 38 37 34
25 21 24 26 24 21 23 23 26 25 23 23 23 22 21 20 20 20 19 16 14 12 11 9 8 7 8 9 11 14 18 19 17 16 17 14 17 20 21 23 27 34 40 45 46 41 40 34 29 29 32 41 42 45
24 19 25 25 25 22 24 23 26 26 24 24 23 23 21 20 20 20 20 18 16 13 11 9 9 8 8 7 7 7 9 11 14 15 15 15 15 18 19 23 25 28 34 35 37 37 36 35 31 30 30 30 32 36
28 23 25 27 25 24 25 25 26 26 23 25 25 24 22 21 20 20 19 17 16 13 10 9 9 7 6 5 7 7 9 11 12 12 13 14 14 15 18 20 23 25 28 32 36 28 22 28 32 30 29 29 29 30
29 26 27 28 26 25 28 27 26 25 23 23 25 24 23 21 19 17 16 16 12 10 9 8 7 5 4 4 5 6 7 5 4 7 11 13 12 12 12 16 21 25 23 27 22 25 26 26 31 29 29 30 32 29
26 29 29 28 26 26 29 29 27 25 23 22 23 23 22 18 17 16 15 13 12 10 7 6 8 6 3 3 4 4 3 3 7 11 15 15 13 9 8 11 16 20 22 25 28 27 24 24 26 30 32 31 29 29
30 29 29 29 26 28 32 30 29 27 24 23 21 20 20 19 18 16 13 12 10 8 8 6 6 7 6 4 5 4 3 4 5 9 10 9 10 8 6 11 14 16 19 22 22 23 23 25 28 27 26 28 28 25
29 30 31 29 27 30 33 30 29 27 23 20 19 20 19 18 18 15 14 13 11 10 7 7 5 5 6 6 6 6 4 4 8 7 5 3 1 1 5 8 10 11 13 13 15 17 18 18 19 20 20 22 23 23
30 29 33 27 27 31 33 31 29 24 20 19 18 18 17 17 16 15 14 11 11 9 6 6 6 7 8 8 7 4 1 6 5 3 3 3 3 2 4 7 8 9 9 12 14 14 15 17 16 17 19 19 18 17
29 31 29 26 28 32 31 28 26 22 18 17 18 19 17 16 15 14 11 11 9 6 4 4 8 9 7 6 5 3 5 4 3 2 5 7 7 7 5 8 9 11 13 13 14 16 16 17 18 15 13 16 19 20
28 28 28 28 31 31 28 26 24 22 20 19 18 16 16 14 13 11 11 9 6 6 5 6 6 5 7 5 2 2 1 1 3 8 10 6 7 11 9 10 13 16 15 16 8 10 9 10 24 16 11 13 11 15
26 27 27 30 31 28 28 26 24 22 19 18 17 16 14 12 11 11 8 6 7 8 7 7 7 8 4 3 4 1 2 3 2 9 8 5 9 7 9 8 10 17 14 12 10 9 8 7 8 7 5 3 7 10
27 30 32 30 29 30 27 24 21 19 18 17 16 14 11 12 11 8 7 6 6 8 11 11 9 6 4 3 2 3 4 8 10 10 7 9 8 8 10 11 11 16 14 10 8 6 5 4 3 4 5 4 4 5
33 32 31 31 29 26 23 21 19 19 17 16 13 12 13 10 8 8 6 7 9 9 9 9 8 6 5 1 0 3 6 11 14 17 17 15 11 12 15 16 15 14 11 9 8 7 5 4 6 10 12 14 14 13
31 31 29 27 25 23 21 20 19 17 16 16 14 13 12 12 14 15 15 17 18 16 16 12 7 4 3 8 14 17 20 21 19 16 14 11 11 14 17 17 18 19 19 19 19 18 17 16 15 13 11 10 8 6
30 27 26 24 23 21 19 19 19 17 15 14 14 17 20 20 18 16 18 19 19 18 14 12 15 20 24 26 26 25 23 22 21 21 23 24 23 23 23 22 20 18 17 19 17 15 12 10 8 6 4 3 4 4
27 26 23 21 20 20 18 17 16 17 19 23 27 26 22 20 20 21 23 22 20 20 23 24 28 28 27 26 26 26 26 25 24 20 19 20 19 19 18 17 16 15 13 11 9 7 6 5 6 6 7 8 8 8
23 23 23 19 16 17 21 22 20 22 26 28 28 29 27 28 29 28 26 26 29 29 27 25 24 21 20 20 20 19 19 20 21 18 16 16 16 15 13 12 10 9 7 7 7 7 7 6 5 5 5 6 5 6
23 21 18 20 22 25 23 24 27 30 31 31 30 28 28 28 30 30 30 29 27 25 23 21 20 19 19 19 19 18 16 14 13 11 9 8 8 7 7 6 5 5 5 6 6 5 4 4 3 3 2 3 6 8
20 21 22 22 24 22 24 26 28 29 28 28 27 26 25 26 26 26 26 25 23 21 19 18 16 15 15 15 14 12 10 7 6 6 5 5 4 4 4 4 4 4 5 6 5 5 4 2 1 2 4 7 9 10
20 21 23 25 25 27 29 29 30 30 27 26 26 25 24 22 20 20 19 18 16 14 13 13 12 11 10 9 8 6 5 4 4 5 6 7 8 9 8 8 8 8 7 7 6 4 3 3 4 6 7 10 11 13
22 24 25 24 25 25 24 24 23 23 22 22 23 22 19 15 14 14 12 10 9 9 8 6 6 5 4 4 3 3 4 7 9 11 13 15 15 15 14 11 10 9 8 7 5 4 5 6 8 9 11 13 15 17
21 24 22 21 20 19 19 17 16 15 16 16 15 15 14 14 15 13 11 9 8 6 5 4 4 2 1 4 7 9 10 11 13 13 14 15 15 14 12 9 8 8 6 6 6 6 6 8 11 13 15 17 19 20
17 17 16 14 14 14 13 12 12 11 10 11 11 11 11 9 9 8 6 4 3 2 2 2 4 6 7 9 10 11 9 6 6 8 10 12 12 11 8 4 3 2 2 2 4 6 9 12 15 18 20 21 21 23

GFSWCAN_500_spd_021.txt.gz
Wind_Speed
18 19 20 19 19 16 15 16 17 18 23 25 26 29 30 28 27 27 28 29 30 33 35 38 40 41 43 44 43 48 43 41 43 43 43 42 42 41 43 40 37 42 40 38 36 37 36 34 32 32 29 29 31 34
21 20 19 19 19 19 14 14 16 16 21 24 26 28 29 28 26 25 25 26 27 30 31 35 37 40 42 44 43 47 42 44 44 44 43 42 42 43 44 43 43 40 36 29 34 31 38 38 36 34 32 28 28 30
22 21 19 20 19 19 15 14 13 15 18 23 25 26 28 27 24 22 22 23 24 26 29 32 34 36 40 42 45 43 46 47 43 41 42 42 46 45 41 40 33 40 42 38 38 36 43 38 39 36 35 34 32 32
23 22 22 21 22 19 17 14 13 15 16 22 24 25 27 26 23 21 20 19 20 22 24 27 30 33 36 39 42 45 45 41 42 41 43 44 45 43 42 39 42 37 39 38 40 45 42 44 41 37 37 37 37 36
26 23 23 23 23 21 19 14 13 15 16 21 24 25 26 25 22 20 18 18 18 18 19 20 24 27 32 35 38 40 42 41 41 42 43 41 42 48 45 45 44 39 44 36 43 50 45 44 38 38 39 39 38 38
29 26 26 26 25 23 19 16 13 16 16 20 26 26 26 25 22 20 18 17 16 15 16 18 19 23 27 30 31 34 36 39 38 39 42 42 47 44 41 41 43 48 48 45 50 45 42 43 42 43 41 40 39 38
33 30 29 28 26 25 21 16 14 16 17 20 25 27 27 25 22 20 18 17 16 15 14 15 16 19 20 23 25 26 28 32 35 37 39 40 42 41 42 43 46 48 47 46 44 44 46 47 46 41 42 43 44 41
37 33 31 30 28 26 21 17 15 18 18 21 26 27 29 25 22 20 19 17 16 15 14 14 13 16 17 19 21 24 25 27 29 31 33 35 38 38 39 41 44 46 47 42 46 48 49 51 46 48 46 45 45 42
38 34 32 31 28 26 21 18 16 18 19 23 27 28 30 25 23 21 20 17 17 16 15 14 13 12 14 14 14 16 17 19 22 24 26 28 29 32 33 36 39 44 46 42 46 46 46 49 49 49 45 46 47 44
37 35 34 31 28 25 21 18 18 18 20 25 27 29 31 26 24 23 21 20 18 15 13 12 13 14 14 12 13 13 14 17 17 19 20 21 22 22 24 28 31 35 39 42 46 46 46 50 48 47 45 40 44 45
36 35 35 33 30 25 22 18 19 19 20 27 28 29 30 27 25 24 23 21 18 15 12 10 10 10 12 13 13 13 13 13 15 17 18 18 18 22 23 23 24 26 29 32 37 40 42 45 45 41 37 32 35 39
37 38 36 34 30 25 22 18 20 21 23 29 27 29 29 27 26 25 24 21 18 15 12 11 9 10 12 12 12 11 14 16 17 19 18 19 23 22 22 24 25 27 28 29 30 35 37 41 43 44 42 42 36 35
35 36 34 32 28 25 20 22 22 24 27 29 28 29 29 26 25 25 23 21 18 15 13 11 11 11 12 12 12 12 11 14 15 15 18 17 18 20 21 22 23 26 27 30 31 33 38 42 45 42 44 42 36 23
36 35 32 30 28 24 20 24 24 25 30 27 27 29 28 26 24 22 21 20 18 16 13 13 12 13 13 11 12 12 12 11 9 8 9 14 13 14 17 21 26 29 29 29 30 30 33 42 44 49 49 43 44 40
35 33 31 30 26 21 24 25 28 27 31 28 28 28 27 24 20 19 18 18 16 16 15 13 12 14 14 13 12 10 11 10 9 10 11 10 14 19 22 24 26 29 27 26 27 25 26 29 33 35 45 44 42 44
33 31 30 29 25 25 27 28 29 29 29 27 27 25 22 21 20 18 16 16 16 15 13 12 13 13 13 10 10 12 12 11 10 11 10 15 19 21 22 22 19 19 18 20 19 18 19 22 24 29 29 30 37 35
35 34 29 25 26 28 29 30 28 29 26 26 26 25 22 20 18 17 16 16 15 13 11 10 8 10 11 10 11 11 10 10 8 10 14 16 20 20 18 15 13 10 11 12 12 12 18 20 22 24 25 28 29 28
32 29 26 27 29 30 31 29 27 26 25 24 24 24 22 20 18 17 15 14 13 11 11 9 9 10 9 9 11 11 9 7 8 10 13 13 16 9 5 4 4 8 5 6 9 12 11 14 16 22 17 18 19 21
29 29 30 30 30 32 30 29 27 25 24 24 24 24 21 19 16 15 14 12 11 11 10 9 8 9 9 9 10 10 8 8 10 8 7 5 6 4 6 2 3 8 7 6 7 8 9 9 10 13 15 16 18 22
31 30 29 29 32 31 30 28 26 25 24 24 23 20 19 17 16 14 12 12 11 11 8 7 8 8 10 10 8 7 7 7 3 5 4 1 5 10 9 10 13 11 8 7 8 10 10 11 12 12 14 15 16 20
29 28 30 33 30 29 28 27 24 22 21 21 21 20 18 16 14 14 13 13 11 8 8 8 10 11 9 7 7 6 4 4 1 5 8 6 6 13 14 14 13 14 11 12 6 5 8 8 8 11 13 12 14 14
30 33 34 31 30 29 26 23 21 21 21 21 19 18 17 17 15 15 16 13 11 10 11 13 14 9 4 5 3 1 4 9 10 5 3 11 13 14 13 13 8 8 3 12 13 18 16 13 13 10 11 10 10 9
34 33 30 28 27 25 22 21 21 22 21 21 20 18 16 16 15 14 13 14 15 15 16 15 9 4 3 2 3 14 15 11 10 10 18 17 12 18 10 14 7 4 5 6 5 5 4 4 4 4 5 5 5 5
30 27 25 25 24 22 23 23 23 23 21 19 17 18 17 14 13 14 17 19 18 17 13 9 7 6 4 8 16 18 16 14 11 11 12 12 13 8 5 6 5 5 7 13 16 17 17 16 15 15 14 13 11 9
27 25 24 23 22 22 23 23 22 19 19 20 18 16 14 16 16 15 14 15 13 13 11 9 8 11 17 19 16 16 14 10 10 13 12 14 15 14 14 16 16 16 15 14 13 11 10 9 7 6 5 5 5 5
24 23 23 22 22 21 21 19 19 19 18 17 16 17 19 19 19 18 16 14 13 15 20 23 24 22 19 16 14 17 20 20 21 19 16 17 16 16 15 15 14 12 9 7 5 4 2 2 2 3 4 6 8 7
21 20 20 20 20 20 19 18 18 18 18 18 20 22 21 21 22 24 25 25 26 26 27 26 24 22 22 22 22 20 18 18 18 17 15 13 12 10 9 7 6 4 2 1 1 1 2 2 2 3 6 9 5 4
17 17 16 16 16 17 18 20 21 21 20 21 24 22 24 28 31 30 29 28 26 27 26 23 22 22 22 21 19 17 16 14 12 10 8 6 5 3 2 1 1 2 3 3 4 4 5 4 5 7 10 8 6 6
17 17 16 16 18 20 21 21 20 20 22 25 25 25 26 27 27 26 25 24 23 22 22 22 21 20 19 16 14 12 9 8 7 5 3 1 1 2 4 5 7 8 9 8 8 7 6 6 7 9 10 9 9 8
14 15 17 20 21 22 23 24 23 23 24 25 25 26 26 25 23 22 21 19 18 18 18 18 16 14 11 9 8 6 4 2 0 3 5 7 9 10 12 13 13 13 12 11 10 9 8 8 8 8 8 9 10 11
18 20 23 25 27 26 24 25 25 25 25 25 26 24 23 22 20 18 17 16 14 13 12 11 10 8 7 6 4 1 3 6 7 8 8 8 8 9 10 10 10 10 10 9 9 9 9 8 8 8 9 10 12 14
22 21 21 21 24 26 26 27 26 24 24 23 22 20 19 17 16 15 14 13 11 10 8 6 6 5 3 2 4 6 6 6 4 4 6 7 8 8 7 5 4 2 3 4 5 6 6 7 8 10 12 14 16 18
21 22 23 22 21 21 21 21 21 20 19 18 16 14 13 11 11 10 9 8 7 6 6 6 6 6 6 6 7 7 6 3 3 4 5 6 6 5 5 5 4 3 1 2 3 5 7 9 11 12 14 16 18 20

GFSWCAN_500_spd_024.txt.gz
Wind_Speed
28 23 21 21 20 18 18 16 16 17 18 20 25 27 29 31 31 32 31 30 31 34 37 34 37 38 41 42 41 46 46 42 38 42 42 39 38 35 36 36 23 31 35 36 33 35 36 33 36 43 35 26 28 31
30 27 25 22 21 18 17 16 16 16 18 18 22 25 28 29 30 31 31 30 30 32 33 34 37 38 39 38 38 44 44 39 40 39 41 41 40 37 30 26 32 31 30 29 31 31 38 41 42 35 33 34 33 30
32 29 26 22 21 19 17 16 15 16 16 18 20 24 28 28 29 29 30 29 29 30 31 33 35 36 38 39 41 42 44 45 45 41 38 37 41 39 36 27 30 31 39 37 34 34 39 42 40 38 36 34 31 33
35 31 27 22 22 21 19 17 16 16 16 18 18 22 26 28 28 28 27 27 27 27 28 31 31 33 35 37 40 43 44 41 38 36 39 39 38 40 35 30 31 42 36 34 38 41 42 33 41 36 36 34 36 35
36 32 29 25 22 22 20 18 18 16 15 17 17 21 24 27 28 27 26 24 25 25 25 26 26 29 32 34 37 40 42 41 41 40 42 41 40 44 44 46 34 34 41 27 32 43 48 46 27 35 38 36 37 35
36 33 30 27 24 23 22 20 18 18 15 17 18 22 23 26 28 27 25 23 21 21 23 24 24 25 28 31 34 37 38 39 41 42 43 42 45 46 45 43 45 44 44 48 47 45 43 44 41 42 43 41 39 36
36 36 33 29 27 25 25 22 21 20 16 17 18 21 25 26 27 26 23 23 20 20 20 20 21 21 23 25 28 31 34 34 37 39 43 44 46 49 48 47 48 48 51 50 47 45 44 46 41 40 40 44 44 40
38 38 36 32 30 26 26 25 22 21 18 17 18 20 26 26 27 25 23 22 20 20 18 16 16 15 17 20 22 25 28 30 33 35 38 41 43 47 45 44 45 46 49 50 48 47 48 48 48 46 39 45 45 41
45 41 36 33 31 29 28 26 23 21 18 18 18 21 25 27 27 25 23 21 20 18 16 15 11 10 13 16 16 18 22 25 27 29 34 37 39 44 43 43 42 46 49 50 47 45 46 46 47 48 48 50 45 42
46 44 40 36 32 31 29 26 25 22 19 19 19 21 26 29 27 24 23 22 19 18 17 16 13 6 10 12 12 12 13 17 22 25 28 32 33 35 37 38 39 43 45 45 44 43 46 49 52 51 49 49 47 47
41 37 37 34 33 32 29 27 26 22 20 20 20 23 27 31 28 25 24 22 20 18 16 15 13 14 14 13 12 11 13 14 15 17 17 17 18 26 26 32 29 29 35 37 39 42 43 45 46 45 50 46 46 43
36 33 34 34 33 32 30 29 25 20 18 19 20 26 28 31 27 25 24 22 20 18 16 13 11 13 14 14 15 12 13 9 11 14 17 17 20 16 23 23 26 29 31 33 34 35 36 39 41 43 47 43 46 42
39 33 34 34 32 34 32 28 25 20 20 20 24 27 28 30 26 24 23 22 21 18 17 15 13 11 12 13 15 17 14 13 16 16 17 21 20 21 24 27 28 28 28 30 31 32 33 36 37 38 38 41 37 36
38 36 35 36 34 36 32 28 23 21 21 22 26 27 28 28 26 25 24 22 21 21 18 13 11 11 13 14 13 13 13 12 11 11 16 16 18 21 21 21 19 20 22 24 26 28 32 33 34 36 40 38 41 35
38 33 35 36 38 34 31 26 23 23 23 25 29 27 28 28 26 22 20 21 22 19 16 14 13 13 12 12 12 11 12 12 12 15 16 15 14 14 17 18 20 23 26 28 31 31 32 31 32 33 35 37 42 37
36 35 36 38 36 34 26 23 24 25 24 27 27 28 28 25 22 21 20 21 19 17 16 14 14 12 14 15 13 14 12 16 15 15 11 13 15 18 22 24 25 25 25 22 23 25 26 25 26 27 26 28 38 37
37 34 37 36 34 27 23 24 26 25 27 27 26 26 26 24 23 20 18 20 18 16 15 13 13 13 15 15 15 16 16 17 14 11 12 14 20 22 18 18 17 15 12 14 15 14 18 20 20 19 29 19 33 40
35 36 35 32 26 23 24 26 26 25 28 26 26 25 24 23 19 17 19 15 14 13 12 11 10 10 13 13 14 13 13 10 9 9 13 17 16 17 11 9 8 8 7 7 8 10 13 14 13 15 17 13 20 22
36 33 29 26 25 25 27 26 26 27 25 25 25 25 24 24 20 17 16 14 13 13 13 12 9 10 10 11 8 9 9 8 10 12 9 8 8 5 3 2 3 4 4 3 0 0 2 7 8 10 9 11 11 11
27 25 27 28 29 28 26 29 29 25 24 25 26 26 24 21 16 14 14 13 13 11 11 10 10 8 9 7 8 8 7 10 9 6 4 2 5 7 9 9 5 5 3 4 4 5 7 5 5 7 5 6 8 9
27 28 29 31 30 30 30 29 26 26 25 27 25 22 19 18 17 15 13 12 11 11 8 8 10 10 9 7 6 6 7 8 1 5 6 9 11 12 13 16 15 12 8 3 3 3 4 2 6 7 8 9 11 11
30 31 31 30 29 29 25 24 24 22 23 23 21 20 18 16 15 15 13 13 12 9 10 10 10 9 5 5 4 2 2 6 6 2 3 14 13 11 9 11 16 12 15 14 9 7 8 6 5 6 6 5 6 10
32 30 28 28 27 25 23 22 21 22 21 21 20 18 18 17 15 14 14 13 11 11 10 12 9 5 5 3 4 12 11 8 4 10 11 15 15 11 8 4 7 8 7 6 7 7 9 6 5 6 5 4 3 3
26 25 26 25 24 21 21 21 22 21 20 19 18 17 15 15 15 14 13 12 12 12 13 10 4 3 1 9 18 14 14 9 11 10 8 16 11 13 3 2 5 10 15 17 17 16 15 13 12 11 11 11 10 10
24 23 22 21 20 20 21 20 20 19 18 17 17 17 15 14 13 14 14 14 15 14 10 7 5 6 16 20 18 16 12 7 8 8 7 7 6 8 11 15 15 13 13 13 12 11 9 8 6 6 5 4 4 4
21 21 20 20 19 20 20 19 18 17 17 17 15 13 12 15 15 15 16 15 13 11 8 8 13 17 16 17 14 11 13 16 17 16 14 14 14 14 12 11 9 8 7 6 5 4 4 3 2 1 0 2 5 6
19 19 19 19 18 18 17 17 18 16 14 14 15 15 15 15 14 13 12 13 16 21 23 21 19 17 17 19 19 19 16 14 15 15 13 10 9 8 6 4 2 3 4 4 3 2 2 1 1 2 4 6 7 5
17 17 17 16 16 16 15 14 14 15 16 16 16 14 15 19 23 24 26 27 25 23 22 22 24 25 23 20 18 16 14 12 10 9 6 4 3 1 2 3 5 6 7 7 8 8 7 7 8 7 8 10 9 8
16 15 15 15 15 15 16 17 16 16 18 20 24 26 28 29 29 29 28 26 24 24 23 23 21 19 18 16 14 11 9 6 5 3 2 2 3 5 7 8 10 11 12 13 12 12 11 11 10 9 9 11 12 12
16 18 19 19 18 18 17 17 19 20 21 23 23 24 25 24 23 23 22 20 19 19 19 18 16 14 11 9 8 6 4 2 2 4 6 8 10 11 12 13 14 15 15 15 13 12 12 11 10 10 10 11 12 13
19 20 20 20 20 19 18 18 19 19 21 21 21 19 19 20 19 18 17 18 18 16 13 11 9 7 6 5 2 0 3 5 6 7 7 7 8 8 8 9 9 9 7 6 6 7 8 9 9 10 10 11 13 15
21 21 20 18 18 19 19 20 21 21 22 21 19 19 18 17 17 17 16 15 13 11 9 7 6 4 4 3 4 6 7 8 7 6 7 6 6 7 7 7 6 4 3 3 4 5 6 7 9 10 12 14 17 18
17 16 16 17 20 21 22 22 22 22 20 18 18 16 13 12 11 10 10 9 8 7 6 5 5 5 6 8 7 7 8 7 7 6 6 6 7 7 7 5 4 4 4 4 5 7 8 10 12 14 16 16 16 17

GFSWCAN_500_spd_030.txt.gz
Wind_Speed
32 30 30 27 27 29 28 23 22 20 19 18 16 14 17 19 30 30 31 29 29 31 29 31 35 36 35 33 33 34 35 44 41 39 38 38 39 39 42 43 43 44 44 44 42 42 40 34 40 38 37 40 38 37
33 30 30 29 28 29 31 28 23 21 20 19 18 16 14 18 22 30 31 31 30 32 31 31 34 35 31 30 31 32 35 34 29 31 38 37 37 37 38 36 39 41 44 43 43 42 43 38 39 36 39 38 37 38
33 31 31 30 28 29 30 31 27 22 20 20 19 18 16 17 19 26 30 32 32 32 32 31 34 35 35 36 37 38 37 34 32 30 26 29 32 34 39 40 37 39 40 41 40 43 40 37 34 35 34 34 32 33
36 33 32 32 30 30 30 30 27 23 20 20 19 18 18 15 18 22 28 30 31 33 33 32 33 34 34 33 33 35 36 32 30 31 31 31 32 32 35 37 35 39 40 40 41 42 40 39 36 34 31 33 37 25
38 35 34 32 30 31 32 32 28 23 21 21 19 19 19 17 18 20 24 26 30 32 33 30 30 30 32 32 32 34 33 33 31 31 32 31 33 34 35 35 35 36 42 43 43 42 39 39 38 35 35 34 30 16
37 36 31 29 32 32 32 33 30 26 21 21 19 19 18 17 17 18 22 25 28 31 30 29 28 28 31 31 31 32 33 34 34 32 32 32 33 36 37 39 40 37 38 40 42 42 43 41 39 36 32 31 33 29
30 27 28 31 31 30 32 33 32 28 23 22 20 18 18 17 16 16 21 24 27 28 27 27 26 24 26 27 29 31 32 32 34 34 34 33 34 37 38 41 41 41 40 40 40 41 40 38 40 35 36 32 28 26
31 31 32 31 29 29 32 34 32 29 25 23 21 19 19 17 16 17 21 23 25 27 25 24 23 22 24 25 25 27 28 29 31 32 33 35 36 40 39 39 42 41 42 41 40 40 40 39 40 39 39 37 36 36
40 37 35 32 29 28 31 34 32 30 27 23 21 19 18 16 17 17 20 22 24 25 23 20 18 19 20 20 20 22 25 27 28 30 32 33 35 38 38 39 41 42 43 42 42 43 46 45 43 45 47 44 44 44
43 41 39 38 34 30 31 35 33 30 28 23 21 18 18 15 16 17 20 22 24 23 21 20 16 18 15 17 18 17 19 22 25 28 29 31 32 36 38 37 39 45 48 47 46 45 43 45 50 51 50 49 49 48
40 41 42 41 39 35 33 34 33 31 28 22 19 17 16 15 16 18 22 23 23 21 20 19 19 20 10 11 13 14 15 16 16 19 24 25 27 31 35 38 40 42 45 45 43 46 49 48 49 50 49 49 49 49
37 37 37 38 38 38 36 33 33 30 27 23 21 20 17 15 17 19 24 23 21 21 20 19 20 20 13 12 11 12 13 13 13 13 14 14 16 19 22 26 31 33 35 37 42 45 46 46 47 49 49 47 47 47
38 36 33 32 35 36 37 34 32 32 27 24 23 20 17 18 19 21 24 21 21 20 18 16 16 16 16 12 13 13 11 11 10 11 11 11 13 16 16 18 19 22 25 28 34 36 36 38 41 42 45 45 43 44
40 37 34 30 28 36 37 37 32 29 25 24 22 19 18 18 19 24 24 20 19 17 18 18 15 13 14 13 12 14 13 13 17 12 14 13 13 19 18 20 22 24 24 26 28 30 32 34 36 37 38 39 38 38
40 37 33 30 26 34 37 38 33 28 27 26 21 20 21 19 21 26 23 22 21 21 20 18 15 13 12 12 11 12 13 14 17 14 13 13 15 19 22 24 24 24 25 26 27 28 29 30 32 33 34 35 36 36
39 34 30 31 34 32 35 38 33 30 29 24 21 20 20 22 27 26 23 21 23 21 20 18 15 13 13 13 12 13 12 11 10 9 11 15 18 19 18 18 19 20 20 21 22 24 26 29 31 30 32 33 36 39
33 30 30 33 31 31 36 38 34 33 27 24 21 21 22 26 25 23 23 15 24 21 19 17 16 14 12 14 15 15 12 9 8 11 14 13 13 15 17 19 22 25 27 27 26 28 27 24 26 27 27 27 29 32
31 30 31 29 29 35 33 36 33 28 25 23 22 24 26 25 22 20 20 16 16 17 16 16 16 14 14 12 10 12 11 12 17 17 13 13 16 17 21 17 14 14 12 14 15 14 16 14 15 20 24 25 27 27
31 30 27 31 31 36 37 33 29 27 26 26 26 32 15 17 22 21 20 18 17 16 16 16 14 12 9 8 9 11 13 15 12 11 11 14 19 16 11 10 9 6 4 7 8 8 7 7 6 6 5 4 9 15
28 34 33 37 38 34 31 29 27 27 26 23 26 26 22 21 23 21 18 16 17 17 15 14 10 8 7 9 10 12 12 10 10 12 11 3 1 1 3 4 4 2 5 4 4 5 4 2 4 3 3 1 1 4
37 39 39 35 31 28 26 25 25 25 23 24 27 25 24 23 20 15 16 18 14 12 10 9 11 12 12 12 7 9 9 11 7 4 11 9 9 8 7 4 4 8 2 2 0 3 3 5 5 3 2 1 3 1
34 31 29 29 29 30 27 25 26 25 23 25 25 25 21 18 19 18 16 12 11 10 9 10 10 9 10 8 7 7 6 3 8 10 15 9 9 7 6 7 5 1 3 2 2 2 1 1 2 1 2 3 3 4
29 27 27 28 28 28 26 23 22 21 23 24 24 21 22 19 16 15 13 12 11 9 8 10 10 11 10 7 5 10 11 9 10 13 12 8 5 3 6 5 3 1 3 4 4 3 5 6 3 2 1 0 2 3
25 23 23 24 25 24 21 20 19 21 22 21 21 20 18 15 14 13 11 12 10 9 10 13 12 9 5 7 12 11 12 12 11 12 12 9 4 3 8 12 15 15 13 12 11 11 11 10 11 11 9 9 9 9
23 22 22 20 20 19 19 19 21 20 20 18 17 16 15 13 13 12 12 10 10 11 12 11 9 9 13 16 13 12 11 8 8 12 10 6 3 8 9 10 10 10 9 8 8 8 8 7 6 7 5 5 4 5
21 20 20 20 19 19 19 18 17 16 15 15 14 14 13 13 14 12 11 11 12 10 5 7 20 22 19 15 11 10 9 11 13 11 12 13 11 9 7 6 6 7 7 7 7 8 8 8 7 7 5 2 2 3
21 20 20 19 19 18 17 16 16 16 15 14 14 14 13 13 14 15 15 15 11 11 22 22 20 19 15 11 13 16 18 17 16 14 12 11 8 6 5 4 5 6 6 7 8 9 9 8 7 5 4 3 6 7
20 19 18 17 15 15 14 14 14 14 15 14 14 15 16 17 17 16 15 13 13 19 19 18 16 16 19 18 17 16 15 15 13 10 8 5 4 4 5 6 8 10 10 11 11 11 11 10 9 9 8 7 8 10
17 16 15 15 13 13 13 14 17 17 18 17 16 17 18 17 16 15 18 21 21 20 19 19 21 20 18 17 14 12 9 7 5 5 3 1 3 6 8 9 10 11 12 12 12 11 9 7 6 6 6 6 5 6
14 14 14 16 17 16 17 16 14 13 14 17 20 23 24 24 23 22 20 18 17 20 20 19 17 15 13 12 9 7 5 1 2 4 6 6 7 8 9 10 11 11 12 12 11 9 7 6 5 6 7 8 9 11
20 20 19 19 19 19 20 22 23 24 25 26 26 23 21 19 17 15 17 19 19 18 16 14 12 11 8 6 4 3 1 1 3 3 4 6 8 9 10 11 11 11 11 11 10 8 7 7 8 8 9 9 9 11
20 20 21 22 24 25 25 25 23 23 24 23 20 18 16 16 16 16 17 17 15 12 9 7 5 4 5 4 3 2 2 3 4 4 5 7 8 10 11 11 11 11 10 8 8 8 8 8 10 11 13 14 15 14
18 18 18 19 19 19 20 20 19 18 19 18 17 14 12 14 15 15 14 12 10 7 4 3 4 4 3 4 5 6 7 7 7 7 8 9 11 12 12 12 12 12 12 11 11 12 12 13 14 16 16 16 15 14

GFSWCAN_500_spd_033.txt.gz
Wind_Speed
25 30 33 30 27 27 27 25 25 24 22 20 19 17 16 16 17 24 29 30 30 32 32 34 36 37 39 40 38 39 44 44 37 36 38 39 40 40 43 48 52 53 50 49 49 45 43 39 39 39 39 38 34 33
25 28 37 33 30 29 29 27 25 26 25 22 20 18 17 16 16 18 27 30 31 32 31 33 35 36 39 39 37 36 34 35 39 43 38 38 38 41 42 43 44 47 48 44 45 43 43 41 38 37 37 36 33 32
26 26 35 34 30 29 30 29 26 25 26 24 21 20 18 18 17 18 19 29 30 33 32 32 35 35 37 38 36 34 32 33 35 38 41 46 43 42 43 44 43 45 44 45 43 44 44 40 36 34 33 31 31 27
30 27 30 35 31 30 31 30 28 25 26 25 23 21 18 18 18 17 19 21 30 32 33 32 35 36 37 37 36 36 38 38 37 35 34 36 47 48 44 42 42 41 41 42 40 41 40 39 34 31 29 27 25 25
35 32 30 34 34 32 32 32 30 26 27 26 24 22 18 18 18 18 17 18 25 30 33 33 35 35 36 36 36 36 36 36 35 34 34 34 33 35 37 42 45 41 40 40 40 38 36 34 31 27 26 25 25 25
42 37 33 32 34 34 33 32 30 28 29 27 24 22 19 17 17 18 17 18 22 27 29 31 35 35 35 35 35 34 35 35 34 35 35 35 35 34 35 35 37 38 37 37 37 37 37 34 33 32 29 27 29 30
46 41 38 37 36 34 33 33 30 29 30 28 26 22 20 17 17 17 16 17 20 26 27 30 33 33 34 32 32 32 33 33 33 33 35 34 35 36 37 37 38 38 38 37 37 37 37 36 37 35 32 31 32 31
45 42 40 38 36 33 32 31 29 29 30 30 26 22 20 18 18 17 16 16 20 24 26 28 30 29 30 30 29 30 31 31 31 31 33 34 35 37 38 37 38 39 38 39 36 39 40 40 40 39 38 35 31 32
42 38 34 32 30 30 30 29 28 29 30 30 27 23 20 19 17 16 15 16 19 22 23 25 26 27 28 27 26 26 27 29 30 30 31 31 34 38 39 37 37 41 40 39 40 41 42 43 42 42 42 40 38 34
39 37 35 34 33 32 30 27 28 28 30 29 26 23 20 18 17 16 15 15 18 20 22 23 22 23 25 24 24 23 24 25 26 27 28 29 31 34 38 38 38 40 42 42 43 42 41 42 43 44 43 43 43 44
43 42 40 40 38 36 32 29 27 28 30 27 25 21 20 19 17 15 14 16 18 19 20 20 21 23 22 21 19 21 21 22 22 25 26 28 31 33 35 36 37 39 42 45 46 45 43 44 46 47 48 47 46 46
42 41 42 42 41 41 35 31 28 29 30 28 25 23 21 20 18 15 15 17 19 19 18 19 21 21 15 16 17 17 17 17 19 22 22 23 27 30 32 33 33 34 36 38 39 41 43 45 47 46 45 46 46 44
43 39 41 43 42 40 37 35 32 30 30 28 25 23 22 20 17 14 14 18 19 17 16 16 17 20 18 13 15 15 15 14 15 17 16 15 20 24 24 22 24 26 29 31 37 41 42 44 44 43 43 44 43 42
44 40 38 38 42 42 38 35 35 31 31 28 24 21 22 20 16 14 17 20 18 17 16 18 19 21 23 15 10 13 12 13 14 14 13 13 16 18 20 22 20 24 25 25 25 26 29 34 36 37 38 40 39 37
46 43 38 35 34 37 40 38 36 31 30 28 25 25 24 18 14 15 20 21 20 19 19 18 18 17 16 15 14 13 14 14 12 16 11 14 13 16 15 18 22 23 25 26 27 28 30 31 32 33 35 34 34 34
46 44 39 34 31 30 37 39 39 33 30 27 26 24 19 14 14 20 24 21 21 19 18 18 15 14 13 13 12 12 11 11 11 12 11 12 14 17 18 19 21 22 23 24 27 27 28 28 26 25 25 26 28 32
43 41 37 34 31 29 37 37 38 34 30 28 26 20 16 17 20 24 27 22 20 20 19 18 16 15 12 12 13 11 10 11 11 13 15 15 16 16 18 20 21 22 23 25 28 29 27 26 27 28 28 26 27 30
40 37 34 32 29 30 35 34 36 32 31 27 23 21 21 23 25 26 24 17 21 18 18 17 16 16 13 11 10 11 12 14 15 16 15 15 16 16 16 19 21 23 21 20 21 19 18 20 19 19 21 23 25 26
33 31 31 29 30 32 36 36 35 34 30 25 23 24 24 23 19 20 20 17 17 19 19 18 16 13 10 11 11 12 14 16 16 15 14 15 15 18 22 20 14 13 11 10 8 8 9 10 11 12 12 13 14 16
31 32 30 30 31 33 35 35 34 31 28 26 21 27 25 23 20 20 20 18 17 18 17 15 13 11 11 13 13 13 13 13 13 12 9 15 18 10 8 8 7 7 8 9 7 7 8 9 7 7 8 11 14 14
30 30 32 35 35 38 38 36 31 29 29 26 19 23 22 22 21 20 19 18 17 14 11 11 11 12 12 11 9 10 11 9 8 12 9 5 4 2 2 3 4 4 6 1 4 6 7 9 9 8 8 9 8 7
36 37 39 36 33 30 27 27 28 29 29 32 25 21 20 22 20 18 17 14 12 11 11 12 12 11 10 9 8 8 8 10 9 14 11 7 6 3 5 3 1 3 2 3 2 3 4 4 3 5 7 8 7 7
33 31 30 31 31 30 28 29 27 26 28 28 22 21 22 21 19 16 13 12 12 11 11 11 9 9 7 7 7 6 9 10 10 14 11 5 1 6 8 1 1 1 1 2 2 3 2 2 4 4 4 6 8 5
25 26 27 27 28 27 24 22 22 25 27 25 24 22 20 17 14 13 12 11 11 10 9 9 10 10 7 5 11 10 8 9 12 13 9 4 4 5 11 13 13 11 10 9 9 8 7 6 6 6 6 5 6 5
23 23 24 24 23 22 20 20 22 24 24 22 21 18 15 13 13 12 12 11 10 9 10 12 10 6 8 14 13 12 13 12 15 13 11 4 4 7 8 9 9 9 8 8 8 8 8 8 7 6 6 5 4 3
23 22 21 21 20 20 20 21 21 21 20 18 16 14 14 14 13 13 11 10 10 12 12 10 10 15 16 14 12 12 12 13 14 11 8 10 10 6 4 5 5 5 5 6 5 4 5 6 7 7 5 3 2 2
22 21 21 21 20 20 19 18 18 17 16 16 15 14 13 14 13 12 12 11 8 7 14 18 21 18 14 11 10 11 13 12 13 14 13 9 6 3 2 4 5 6 7 7 8 8 8 9 10 9 7 5 5 7
20 20 19 18 17 17 17 16 15 15 15 15 15 15 15 15 15 15 12 10 20 23 22 21 16 15 18 18 17 16 15 13 11 9 7 4 2 2 4 7 8 8 9 10 10 11 9 8 7 7 8 9 9 10
17 16 16 15 16 15 15 15 15 14 14 15 15 16 17 17 15 14 14 21 19 19 18 16 19 20 19 17 15 13 11 8 6 3 1 2 3 4 6 8 9 9 10 10 10 9 8 6 4 3 4 6 9 10
15 15 15 16 16 16 16 16 16 16 16 17 19 18 16 15 19 23 22 19 17 18 19 20 17 15 13 10 9 7 5 3 1 2 4 4 4 6 7 9 10 12 12 11 10 9 7 6 6 6 7 7 7 9
17 16 17 18 18 17 16 17 19 19 20 21 22 24 23 22 22 20 18 20 20 20 19 16 13 9 6 5 3 1 3 4 4 2 2 2 3 6 8 9 11 12 12 11 11 10 9 7 7 7 8 10 12 14
21 21 23 23 24 23 23 25 27 26 24 23 22 20 16 17 17 16 17 18 17 13 10 8 8 7 4 2 4 4 6 8 7 5 4 5 7 8 10 11 12 12 13 13 12 12 12 12 12 13 14 16 17 17
21 21 20 19 19 19 22 21 20 17 16 15 15 15 15 15 17 17 16 14 12 11 9 6 4 2 4 8 10 8 7 6 6 6 6 7 8 9 10 12 13 14 13 13 14 14 14 15 16 16 17 17 17 17